Погода в Каськове

Россия / Псковская область     56°12′02″N   31°11′39″E
темп.,
°C
ветер,
м/с
пор.,
м/с
влажн.,
%
обл.,
%
осадки,
мм/ч
давл.,
гПа
погр.,
м
10 апреля, сб
сб1000:00+4ююз51471100 0.0 1019738
03:00+4ююз51469100 0.0 1018729
06:00+3ю51472100 0.0 1018624
09:00+5ю61366100 0.0 1018723
12:00+9ююз7135089 0.0 10171612
15:00+11ююз61150100 0.0 10171948
18:00+10юз61254100 0.0 10171673
21:00+8юз41162100 0.0 1018569
11 апреля, вс
вс1100:00+6зсз2489100 1.4 1021617
03:00+5ссз2296100 3.9 1022527
06:00+4ссв1396100 1.7 1023234
09:00+4в2494100 1.7 1025228
12:00+5вюв2493100 0.3 1027207
15:00+6ссв2394100 0.5 102785
18:00+7в228988 0.0 102764
21:00+7вюв2588100 0.0 102890
12 апреля, пн
пн1200:00+6ююв258996 0.0 102986
03:00+5ююв37898 0.0 1029114
06:00+4ююв259012 0.0 102975
09:00+9ююв38722 0.0 1028305
12:00+14ююв47490 0.0 10271070
15:00+16ююв46400 0.0 10251497
18:00+14юв3747100 0.0 1023339
21:00+9юв31069100 0.0 1023227
13 апреля, вт
вт1300:00+8юв3779100 0.0 1022228
03:00+7юв2690100 0.0 1022180
06:00+6ююв2497100 0.0 102192
09:00+8ююв259697 0.0 1021215
12:00+8юв249897 0.1 1020167
15:00+11юв238667 0.1 1019438
18:00+12юв248199 0.0 1018161
21:00+9вюв239469 0.0 101857
14 апреля, ср
ср1400:00+7юв2295100 0.0 101727
03:00+7ююв2296100 0.0 101717
06:00+6ююв1197100 0.0 101610
09:00+10ююв2491100 0.0 1016229
12:00+10ююв259499 0.1 1016296
15:00+11юв1290100 0.5 1015179
18:00+13ю367373 0.8 1014629
21:00+9юв228895 0.8 101518